| ID | Machine | Gebeurtenis | Tijd | Uren | Service | Status | USB ID | |
|---|---|---|---|---|---|---|---|---|
| 4703 | 60-049XA-S5 | Restart | 17-08-2024 10:59:00 | 892 | 500 | OVER BEURT URGENT! | 2592AEE07E5 | |
| 4699 | 60-049XA-S5 | Engine Stopped | 17-08-2024 10:58:41 | 892 | 500 | OVER BEURT URGENT! | 2592AEE07E5 | |
| 4700 | 60-049XA-S5 | Generator Over Current Warning | 17-08-2024 10:58:16 | 892 | 500 | OVER BEURT URGENT! | 2592AEE07E5 | |
| 4694 | 60-049XA-S5 | Engine Start | 17-08-2024 10:50:16 | 892 | 500 | OVER BEURT URGENT! | 2592AEE07E5 | |
| 4689 | 60-049XA-S5 | Engine Stopped | 17-08-2024 10:37:34 | 892 | 500 | OVER BEURT URGENT! | 2592AEE07E5 | |
| 4690 | 60-049XA-S5 | Generator Under Volts Warning | 17-08-2024 10:37:01 | 892 | 500 | OVER BEURT URGENT! | 2592AEE07E5 | |
| 4691 | 60-049XA-S5 | Generator Over Current Warning | 17-08-2024 10:36:54 | 892 | 500 | OVER BEURT URGENT! | 2592AEE07E5 | |
| 4692 | 60-049XA-S5 | Engine Start | 17-08-2024 10:36:46 | 892 | 500 | OVER BEURT URGENT! | 2592AEE07E5 | |
| 4683 | 60-049XA-S5 | Engine Stopped | 17-08-2024 10:25:49 | 892 | 500 | OVER BEURT URGENT! | 2592AEE07E5 | |
| 4684 | 60-049XA-S5 | kW Overload Alarm Shutdown | 17-08-2024 10:25:40 | 892 | 500 | OVER BEURT URGENT! | 2592AEE07E5 | |
| 4685 | 60-049XA-S5 | Generator Over Current Warning | 17-08-2024 10:25:15 | 892 | 500 | OVER BEURT URGENT! | 2592AEE07E5 | |
| 4686 | 60-049XA-S5 | Generator Over Current Warning | 17-08-2024 10:25:05 | 892 | 500 | OVER BEURT URGENT! | 2592AEE07E5 | |
| 4682 | 60-049XA-S5 | Generator Over Current Warning | 17-08-2024 10:24:48 | 892 | 500 | OVER BEURT URGENT! | 2592AEE07E5 | |
| 4654 | 60-049XA-S5 | Fuel Remaining 91% | 17-08-2024 03:10:15 | 885 | 500 | OVER BEURT URGENT! | 2592AEE07E5 | |
| 4622 | 60-049XA-S5 | Fuel Remaining 91% | 16-08-2024 19:10:14 | 877 | 500 | OVER BEURT URGENT! | 2592AEE07E5 | |
| 4544 | 60-049XA-S5 | Engine Start | 16-08-2024 11:10:04 | 869 | 500 | OVER BEURT URGENT! | 2592AEE07E5 | |
| 1001 | 60-049XA-S5 | Engine Start | 01-08-2024 06:04:47 | 868 | 500 | OVER BEURT URGENT! | 2592AEE07E5 | |
| 846 | 60-049XA-S5 | Fuel Monitor Event Start Fill 98% | 31-07-2024 09:16:36 | 868 | 500 | OVER BEURT URGENT! | 2592AEE07E5 | |
| 833 | 60-049XA-S5 | Engine Start | 31-07-2024 07:39:26 | 867 | 500 | OVER BEURT URGENT! | 2592AEE07E5 | |
| 465 | 60-049XA-S5 | Fuel Monitor Event End Fill 90% | 29-07-2024 13:35:11 | 867 | 500 | OVER BEURT URGENT! | 2592AEE07E5 | |
| 466 | 60-049XA-S5 | Fuel Monitor Event Start Fill 83% | 29-07-2024 13:35:02 | 867 | 500 | OVER BEURT URGENT! | 2592AEE07E5 | |
| 467 | 60-049XA-S5 | Fuel Monitor Event Start Fill 79% | 29-07-2024 13:34:52 | 867 | 500 | OVER BEURT URGENT! | 2592AEE07E5 |